N4MRV-1 Weather Reports


time (UTC)temp
C
wind
direction
speed
KPH
gust
KPH
rain 1hr
cm
rain 24hr
cm
rain mn
cm
humidity
%
barometer
mb
20260904081536 24 0.0 0.0 0.00 0.00 0.00 84 1014.4
20260904080016 25 0.0 0.0 0.00 0.00 0.00 83 1014.4
20260904074516 25 0.0 0.0 0.00 0.00 0.00 82 1014.1
20260904073016 25 0.0 0.0 0.00 0.00 0.00 80 1014.0
20260904071536 25 0.0 0.0 0.00 0.00 0.00 80 1013.9
20260904070016 26 0.0 3.2 0.00 0.00 0.00 80 1013.9
20260904064516 26 0.0 1.6 0.00 0.00 0.00 78 1014.2
20260904063016 26 0.0 1.6 0.00 0.00 0.00 78 1014.1
20260904061516 26 158 1.6 4.8 0.00 0.00 0.00 77 1014.3
20260904060016 26 225 1.6 6.4 0.00 0.00 0.00 81 1015.0
20260904054516 26 270 3.2 12.9 0.00 0.00 0.00 87 1015.3
20260904053016 26 0.0 4.8 0.00 0.00 0.00 88 1014.5
20260904051516 26 0.0 0.0 0.00 0.00 0.00 88 1014.0
20260904050016 26 0.0 0.0 0.00 0.00 0.00 87 1014.2
20260904044516 26 0.0 0.0 0.00 0.00 0.00 87 1014.3
20260904043016 26 0.0 0.0 0.00 0.00 0.00 88 1014.4
20260904041516 26 0.0 0.0 0.00 0.00 0.00 89 1014.3
20260904040016 26 0.0 0.0 0.00 0.00 0.00 89 1014.5
20260904034517 26 0.0 0.0 0.00 0.00 0.00 89 1014.4
20260904033016 26 0.0 0.0 0.00 0.00 0.00 89 1014.5
20260904031517 26 0.0 0.0 0.00 0.00 0.00 89 1014.7
20260904030037 26 0.0 0.0 0.00 0.00 0.00 88 1014.7
20260904024516 27 0.0 1.6 0.00 0.00 0.00 88 1014.5
20260904023016 27 0.0 0.0 0.00 0.00 0.00 88 1014.6
20260904021557 27 0.0 0.0 0.00 0.00 0.00 88 1014.6
20260904020016 27 0.0 0.0 0.00 0.00 0.00 87 1014.4
20260904014516 27 0.0 1.6 0.00 0.00 0.00 87 1014.8
20260904013016 27 0.0 0.0 0.00 0.00 0.00 86 1014.8
20260904011516 28 0.0 0.0 0.00 0.00 0.00 85 1015.1
20260904010036 28 0.0 0.0 0.00 0.00 0.00 85 1015.2
20260904004516 28 0.0 0.0 0.00 0.00 0.00 83 1015.3
20260904003016 28 0.0 1.6 0.00 0.00 0.00 83 1015.4
20260904001516 29 0.0 0.0 0.00 0.00 0.00 82 1015.0
20260904000016 29 0.0 0.0 0.00 0.00 0.00 81 1014.7
20260903234516 30 0.0 0.0 0.00 0.00 0.00 80 1014.5
20260903233016 30 0.0 1.6 0.00 0.00 0.00 79 1014.4
20260903231516 30 0.0 0.0 0.00 0.00 0.00 78 1014.4
20260903230016 31 0.0 1.6 0.00 0.00 0.00 76 1014.3
20260903224516 31 0.0 1.6 0.00 0.00 0.00 75 1014.3
20260903223016 32 0.0 0.0 0.00 0.00 0.00 73 1014.3
20260903221516 32 0.0 0.0 0.00 0.00 0.00 72 1014.2
20260903220015 32 0.0 0.0 0.00 0.00 0.00 70 1014.4
20260903214536 32 0.0 1.6 0.00 0.00 0.00 69 1014.4
20260903213016 33 0.0 3.2 0.00 0.00 0.00 68 1014.5
20260903211515 33 0.0 1.6 0.00 0.00 0.00 68 1014.5
20260903210016 33 293 1.6 4.8 0.00 0.00 0.00 68 1014.6
20260903204535 33 0.0 4.8 0.00 0.00 0.00 66 1014.8
20260903203055 33 0.0 3.2 0.00 0.00 0.00 69 1014.8
20260903201515 33 0.0 6.4 0.00 0.00 0.00 67 1015.0
20260903200016 33 0.0 3.2 0.00 0.00 0.00 66 1015.2
20260903194516 33 0.0 3.2 0.00 0.00 0.00 67 1015.4
20260903193016 33 338 1.6 4.8 0.00 0.00 0.00 67 1015.6
20260903191536 32 315 1.6 4.8 0.00 0.00 0.00 69 1015.7
20260903190016 32 180 1.6 4.8 0.00 0.00 0.00 69 1016.0
20260903184515 32 293 1.6 4.8 0.00 0.00 0.00 69 1016.2
20260903183116 31 68 1.6 3.2 0.00 0.00 0.00 69 1016.3
20260903181515 31 338 1.6 4.8 0.00 0.00 0.00 72 1016.5
20260903180015 31 135 1.6 8.0 0.00 0.00 0.00 71 1016.8
20260903174515 31 0.0 3.2 0.00 0.00 0.00 73 1017.0
20260903173015 31 315 1.6 4.8 0.00 0.00 0.00 73 1016.9
20260903171515 30 293 1.6 4.8 0.00 0.00 0.00 74 1017.1
20260903170015 30 293 1.6 6.4 0.00 0.00 0.00 73 1017.4
20260903164515 30 270 1.6 6.4 0.00 0.00 0.00 72 1017.5
20260903163015 30 270 1.6 6.4 0.00 0.00 0.00 73 1017.6
20260903161517 30 270 1.6 3.2 0.00 0.00 0.00 73 1017.8
20260903160017 30 0.0 4.8 0.00 0.00 0.00 76 1017.9
20260903154537 30 293 1.6 3.2 0.00 0.00 0.00 77 1017.9
20260903153037 29 293 1.6 9.7 0.00 0.00 0.00 77 1017.8
20260903151517 29 315 1.6 4.8 0.00 0.00 0.00 79 1018.0
20260903150017 28 45 1.6 4.8 0.00 0.00 0.00 80 1017.7
20260903144537 28 135 1.6 4.8 0.00 0.00 0.00 83 1017.7
20260903143017 27 113 1.6 4.8 0.00 0.00 0.00 85 1017.6
20260903141537 27 45 1.6 4.8 0.00 0.00 0.00 87 1017.6
20260903140017 26 270 1.6 9.7 0.00 0.00 0.00 92 1017.4
20260903134517 25 0.0 4.8 0.00 0.00 0.00 95 1017.1
20260903133017 25 0.0 1.6 0.00 0.00 0.00 96 1017.2
20260903131537 24 0.0 3.2 0.00 0.00 0.00 96 1017.4
20260903130017 24 0.0 0.0 0.00 0.00 0.00 96 1017.5
20260903124517 23 0.0 0.0 0.00 0.00 0.00 96 1017.7
20260903123016 23 0.0 0.0 0.00 0.00 0.00 95 1017.7
20260903121517 23 0.0 0.0 0.00 0.00 0.00 95 1017.7
20260903120017 23 0.0 0.0 0.00 0.00 0.00 95 1017.7
20260903114516 22 0.0 0.0 0.00 0.00 0.00 94 1017.5
20260903113016 22 0.0 0.0 0.00 0.00 0.00 94 1017.3
20260903111516 22 0.0 0.0 0.00 0.00 0.00 94 1017.2
20260903110017 22 0.0 0.0 0.00 0.00 0.00 94 1017.1
20260903104536 22 0.0 0.0 0.00 0.00 0.00 94 1017.0
20260903103016 23 0.0 0.0 0.00 0.00 0.00 94 1016.9
20260903101516 23 0.0 0.0 0.00 0.00 0.00 94 1016.8
20260903100016 23 0.0 0.0 0.00 0.00 0.00 94 1017.1
20260903094516 23 0.0 0.0 0.00 0.00 0.00 94 1017.0
20260903093016 23 0.0 0.0 0.00 0.00 0.00 94 1017.0
20260903091516 23 0.0 0.0 0.00 0.00 0.00 94 1017.0
20260903090016 23 0.0 0.0 0.00 0.00 0.00 93 1016.8
20260903084516 23 0.0 0.0 0.00 0.00 0.00 93 1016.4
20260903083016 23 0.0 0.0 0.00 0.00 0.00 93 1016.4